Location: Gila Cliff Dwellings National Monument
(33.2240°N, 108.2417°W)
Time: 13:12:10
(UTC-06:00)

Cosmos 2322 Rocket - Visible Passes

Search period start: 20 June 2018 00:00
Search period end: 30 June 2018 00:00
Orbit: 834 x 849 km, 71.0° (Epoch: 19 June)

Date Brightness Start Highest point End Pass type
(mag) Time Alt. Az. Time Alt. Az. Time Alt. Az.
24 Jun 2.4 05:31:30 10° SSW 05:37:06 75° ESE 05:42:44 10° NNE visible
25 Jun 2.5 05:16:31 10° S 05:22:06 71° ESE 05:27:42 10° NNE visible
26 Jun 2.5 05:01:33 10° S 05:07:07 67° ESE 05:12:41 10° NNE visible
27 Jun 2.6 04:46:46 11° S 04:52:07 63° ESE 04:57:39 10° NNE visible
28 Jun 2.6 04:32:38 16° S 04:37:07 59° ESE 04:42:38 10° NNE visible
29 Jun 2.7 04:18:26 21° S 04:22:07 55° ESE 04:27:36 10° NNE visible
